Murray, KY

2:35 PM CST on December 05, 2019 (GMT -0600)
Kyle-Oakley

Weather History for KCEY - October, 2019

Change the Weather History Date:

Saturday, October 19, 2019

  Actual Average (KPAH) Record (KPAH)
Temperature  
Mean Temperature 56 °F -  
Max Temperature 73 °F 65 °F 90 °F (1938)
Min Temperature 39 °F 43 °F 32 °F (1990)
Degree Days  
Heating Degree Days 9    
Growing Degree Days 6 (Base 50)    
Moisture  
Dew Point 50 °F    
Average Humidity 83    
Maximum Humidity 100    
Minimum Humidity 49    
Precipitation  
Precipitation 0.00 in - - ()
Sea Level Pressure  
Sea Level Pressure 29.84 in    
Wind  
Wind Speed 2 mph (SSE)    
Max Wind Speed 10 mph    
Max Gust Speed 16 mph    
Visibility 10 miles    
Events      
Averages and records for this station are not official NWS values.
T = Trace of Precipitation, MM = Missing Value Source: NWS Daily Summary

Daily Weather History Graph

Daily Weather History Graph

Search for Another Location

Airport or City:

Astronomy

Oct. 19, 2019 Rise Set
Actual Time 7:04 AM CDT 6:12 PM CDT
Civil Twilight 6:38 AM CDT 6:38 PM CDT
Nautical Twilight 6:08 AM CDT 7:08 PM CDT
Astronomical Twilight 5:38 AM CDT 7:38 PM CDT
Moon 10:27 PM CDT (10/19) 12:30 PM CDT (10/19)
Length of Visible Light 12h 00m
Length of Day
11h 07m
Waning Gibbous, 69% of the Moon is Illuminated
Oct 19
Waning Gibbous
Oct 21
Last Quarter
Oct 27
New
Nov 4
First Quarter
Nov 12
Full

Hourly Weather History & Observations

Time (CDT) Temp. Windchill Dew Point Humidity Pressure Visibility Wind Dir Wind Speed Gust Speed Precip Events Conditions
12:15 AM 44.6 °F - 44.6 °F 100% 29.89 in 10.0 mi Calm Calm - N/A   Unknown
12:35 AM 42.8 °F - 42.8 °F 100% 29.88 in 10.0 mi Calm Calm - N/A   Clear
12:55 AM 44.6 °F - 44.6 °F 100% 29.88 in 10.0 mi Calm Calm - N/A   Clear
1:15 AM 42.8 °F - 42.8 °F 100% 29.88 in 10.0 mi Calm Calm - N/A   Clear
1:35 AM 42.8 °F 41.1 °F 42.8 °F 100% 29.88 in 10.0 mi ESE 3.5 mph - N/A   Clear
1:55 AM 44.6 °F - 44.6 °F 100% 29.88 in 10.0 mi Calm Calm - N/A   Clear
2:15 AM 44.6 °F - 42.8 °F 93% 29.88 in 10.0 mi Calm Calm - N/A   Clear
2:35 AM 44.6 °F - 42.8 °F 93% 29.88 in 10.0 mi Calm Calm - N/A   Clear
2:55 AM 44.6 °F - 44.6 °F 100% 29.88 in 10.0 mi Calm Calm - N/A   Clear
3:15 AM 44.6 °F - 42.8 °F 93% 29.87 in 10.0 mi Calm Calm - N/A   Clear
3:35 AM 44.6 °F - 44.6 °F 100% 29.86 in 10.0 mi Calm Calm - N/A   Clear
3:55 AM 44.6 °F - 44.6 °F 100% 29.86 in 10.0 mi Calm Calm - N/A   Clear
4:15 AM 42.8 °F - 42.8 °F 100% 29.87 in 10.0 mi Calm Calm - N/A   Clear
4:35 AM 42.8 °F - 42.8 °F 100% 29.87 in 9.0 mi Calm Calm - N/A   Clear
4:55 AM 41.0 °F - 41.0 °F 100% 29.88 in 10.0 mi Calm Calm - N/A   Clear
5:15 AM 41.0 °F - 41.0 °F 100% 29.88 in 10.0 mi Calm Calm - N/A   Clear
5:35 AM 41.0 °F 39.0 °F 41.0 °F 100% 29.89 in 10.0 mi ENE 3.5 mph - N/A   Clear
5:55 AM 41.0 °F - 41.0 °F 100% 29.88 in 10.0 mi Calm Calm - N/A   Unknown
6:15 AM 39.2 °F 37.0 °F 39.2 °F 100% 29.89 in 10.0 mi East 3.5 mph - N/A   Clear
6:35 AM 41.0 °F 39.0 °F 41.0 °F 100% 29.89 in 10.0 mi East 3.5 mph - N/A   Clear
6:55 AM 39.2 °F - 39.2 °F 100% 29.88 in 10.0 mi Calm Calm - N/A   Clear
7:15 AM 41.0 °F 39.0 °F 41.0 °F 100% 29.88 in 10.0 mi East 3.5 mph - N/A   Clear
7:35 AM 41.0 °F - 41.0 °F 100% 29.88 in 10.0 mi Calm Calm - N/A   Clear
7:55 AM 44.6 °F - 44.6 °F 100% 29.88 in 10.0 mi Calm Calm - N/A   Clear
8:15 AM 46.4 °F - 46.4 °F 100% 29.88 in 10.0 mi Calm Calm - N/A   Clear
8:35 AM 50.0 °F - 48.2 °F 94% 29.89 in 10.0 mi East 3.5 mph - N/A   Clear
8:55 AM 51.8 °F - 48.2 °F 88% 29.90 in 10.0 mi Calm Calm - N/A   Clear
9:15 AM 55.4 °F - 46.4 °F 72% 29.90 in 10.0 mi East 4.6 mph - N/A   Clear
9:35 AM 57.2 °F - 46.4 °F 67% 29.90 in 10.0 mi SE 5.8 mph - N/A   Clear
9:55 AM 59.0 °F - 48.2 °F 67% 29.90 in 10.0 mi SSE 8.1 mph - N/A   Clear
10:35 AM 62.6 °F - 50.0 °F 63% 29.89 in 10.0 mi South 9.2 mph - N/A   Clear
10:55 AM 64.4 °F - 50.0 °F 59% 29.89 in 10.0 mi South 8.1 mph - N/A   Clear
11:15 AM 66.2 °F - 50.0 °F 56% 29.88 in 10.0 mi SSE 6.9 mph - N/A   Clear
11:35 AM 66.2 °F - 50.0 °F 56% 29.87 in 10.0 mi SSE 9.2 mph - N/A   Clear
11:55 AM 68.0 °F - 50.0 °F 52% 29.86 in 10.0 mi SSE 9.2 mph - N/A   Clear
12:15 PM 68.0 °F - 50.0 °F 52% 29.85 in 10.0 mi South 6.9 mph - N/A   Clear
12:35 PM 69.8 °F - 50.0 °F 49% 29.83 in 10.0 mi SE 6.9 mph - N/A   Clear
12:55 PM 71.6 °F - 51.8 °F 50% 29.82 in 10.0 mi SSE 10.4 mph - N/A   Clear
1:15 PM 71.6 °F - 53.6 °F 53% 29.81 in 10.0 mi South 10.4 mph - N/A   Clear
1:35 PM 71.6 °F - 53.6 °F 53% 29.81 in 10.0 mi South 6.9 mph - N/A   Clear
1:55 PM 71.6 °F - 53.6 °F 53% 29.80 in 10.0 mi SSE 6.9 mph 16.1 mph N/A   Clear
2:15 PM 71.6 °F - 53.6 °F 53% 29.79 in 10.0 mi South 6.9 mph - N/A   Clear
2:35 PM 71.6 °F - 53.6 °F 53% 29.79 in 10.0 mi South 5.8 mph - N/A   Clear
2:55 PM 71.6 °F - 53.6 °F 53% 29.78 in 10.0 mi South 6.9 mph - N/A   Scattered Clouds
3:15 PM 73.4 °F - 55.4 °F 53% 29.78 in 10.0 mi SSE 8.1 mph - N/A   Mostly Cloudy
3:55 PM 71.6 °F - 55.4 °F 57% 29.76 in 10.0 mi SSE 6.9 mph - N/A   Partly Cloudy
4:15 PM 71.6 °F - 55.4 °F 57% 29.76 in 10.0 mi ESE 6.9 mph - N/A   Partly Cloudy
4:35 PM 71.6 °F - 55.4 °F 57% 29.76 in 10.0 mi South 8.1 mph - N/A   Partly Cloudy
4:55 PM 69.8 °F - 57.2 °F 64% 29.76 in 10.0 mi SE 8.1 mph - N/A   Scattered Clouds
5:15 PM 68.0 °F - 57.2 °F 68% 29.76 in 10.0 mi SE 5.8 mph - N/A   Scattered Clouds
5:35 PM 66.2 °F - 57.2 °F 73% 29.76 in 10.0 mi SSE 6.9 mph - N/A   Clear
5:55 PM 66.2 °F - 57.2 °F 73% 29.77 in 10.0 mi SSE 4.6 mph - N/A   Clear
6:15 PM 64.4 °F - 57.2 °F 77% 29.77 in 10.0 mi Calm Calm - N/A   Clear
6:35 PM 60.8 °F - 59.0 °F 94% 29.77 in 10.0 mi Calm Calm - N/A   Clear
7:15 PM 62.6 °F - 59.0 °F 88% 29.79 in 10.0 mi SSE 3.5 mph - N/A   Unknown
7:35 PM 62.6 °F - 59.0 °F 88% 29.79 in 10.0 mi Calm Calm - N/A   Unknown
7:55 PM 62.6 °F - 59.0 °F 88% 29.80 in 10.0 mi SE 3.5 mph - N/A   Mostly Cloudy
8:15 PM 60.8 °F - 60.8 °F 100% 29.80 in 10.0 mi SSE 4.6 mph - N/A   Clear
8:35 PM 60.8 °F - 60.8 °F 100% 29.80 in 10.0 mi SSE 4.6 mph - N/A   Partly Cloudy
8:55 PM 60.8 °F - 60.8 °F 100% 29.80 in 10.0 mi SE 3.5 mph - N/A   Mostly Cloudy
9:15 PM 59.0 °F - 59.0 °F 100% 29.80 in 10.0 mi SE 3.5 mph - N/A   Unknown
9:35 PM 59.0 °F - 59.0 °F 100% 29.81 in 10.0 mi SE 3.5 mph - N/A   Mostly Cloudy
9:55 PM 59.0 °F - 59.0 °F 100% 29.81 in 10.0 mi SSE 3.5 mph - N/A   Partly Cloudy
10:15 PM 57.2 °F - 57.2 °F 100% 29.82 in 10.0 mi Calm Calm - N/A   Clear
10:35 PM 57.2 °F - 57.2 °F 100% 29.82 in 8.0 mi South 3.5 mph - N/A   Unknown
10:55 PM 57.2 °F - 57.2 °F 100% 29.82 in 10.0 mi Calm Calm - N/A   Unknown
11:15 PM 57.2 °F - 57.2 °F 100% 29.82 in 10.0 mi Calm Calm - N/A   Overcast
11:35 PM 59.0 °F - 59.0 °F 100% 29.82 in 10.0 mi Calm Calm - N/A   Unknown
11:55 PM 59.0 °F - 59.0 °F 100% 29.82 in 10.0 mi SSW 5.8 mph - N/A   Unknown